Simultaneous Nadir Overpasses (SNOs) Predictions

Prediction of SNOs between AQUA and NOAA-19 Satellite Orbit:

Table of predicted SNOs for the next 14.0 days since TLE Epoch: 9/16/2023
Index Date (AQUA) Time (AQUA) Lat,Lon (AQUA) SZA (AQUA ) Date (NOAA-19) Time (NOAA-19) Lat,Lon (NOAA-19) SZA (NOAA-19 ) Distance(km) Time Diff (sec)
1 09/18/2023 05:22:58 -76.22, -88.51 105.74 09/18/2023 05:23:08 -76.24, -88.52 105.72 2.24 10
2 09/20/2023 10:04:38 -76.24,-158.96 104.87 09/20/2023 10:04:31 -76.23,-158.84 104.88 3.28 7
3 09/20/2023 10:54:09 76.54, 7.69 75.47 09/20/2023 10:55:17 76.59, 9.84 75.46 55.72 68
4 09/22/2023 14:46:16 -76.20, 130.78 104.07 09/22/2023 14:45:54 -76.21, 130.82 104.05 1.70 22
5 09/22/2023 15:35:42 76.26, -61.77 76.02 09/22/2023 15:36:48 76.24, -61.83 75.99 3.24 66
6 09/24/2023 19:27:54 -76.20, 60.40 103.22 09/24/2023 19:27:17 -76.19, 60.44 103.23 1.66 37
7 09/24/2023 20:17:20 76.26,-132.15 76.87 09/24/2023 20:18:11 76.23,-132.14 76.83 4.10 51
8 09/27/2023 00:09:31 -76.19, -9.94 102.38 09/27/2023 00:08:39 -76.20, -9.80 102.37 3.83 52
9 09/27/2023 00:58:56 76.21, 157.65 77.66 09/27/2023 00:59:34 76.21, 157.51 77.66 3.64 38
10 09/29/2023 04:51:07 -76.17, -80.26 101.55 09/29/2023 04:50:02 -76.15, -80.24 101.56 1.76 65



Historial Predications of SNOs between AQUA and NOAA-19
